Flag for Norway Weather past 2 weeks in Sandefjord, Norway

Now
46 °F

Sunny.


Feels Like: 43 °F
Forecast: 42 / 49 °F
Wind: 7 mph from Southwest

Location: Torp

Current Time: Mar 6, 2015 at 5:25:41 PM

Latest Report: Mar 6, 2015 at 4:50 PM


Visibility: 10 mi

Pressure: 30.15 "Hg

Humidity: 53%

Dew point: 30 °F

Location of SandefjordLocation

Historic Weather in Sandefjord — Graph

°F

Sandefjord temperature yesterday

Maximum temperature yesterday: 45 °F (at 12:20 PM)
Minimum temperature yesterday: 28 °F (at 2:50 AM)
Average temperature yesterday: 37 °F

Past Weeks' High & Low Weather Summary

 TemperatureHumidityPressure
High50 °F (Mar 6, 12:50 PM)100% (Feb 19, 3:20 PM)30.30 "Hg (Feb 19, 3:20 PM)
Low27 °F (Mar 3, 6:20 AM)39% (Mar 4, 2:50 PM)28.97 "Hg (Feb 23, 11:50 AM)
Average37 °F85%29.55 "Hg
* Reported Feb 19 3:20 PM — Mar 6 3:50 PM, Sandefjord, Weather by CustomWeather, © 2015

Note: Actual official high and low records may vary slightly from our data, if they occured in-between our weather recording intervals... More about our weather records

Advertising

Sandefjord weather history for previous 24 hours

 ConditionsComfort  
Time TempWeatherWind HumidityBarometerVisibility
3:50 PM
Fri, Mar 6
50 °FPassing clouds.7 mph47%30.15 "HgN/A
3:20 PM50 °FSunny.8 mph50%30.15 "Hg10 mi
2:50 PM50 °FPassing clouds.7 mph50%30.15 "HgN/A
2:20 PM50 °FPassing clouds.8 mph50%30.18 "HgN/A
1:50 PM50 °FPassing clouds.9 mph50%30.15 "HgN/A
1:20 PM50 °FPassing clouds.7 mph47%30.15 "HgN/A
12:50 PM50 °FPassing clouds.7 mph47%30.18 "HgN/A
12:20 PM48 °FPassing clouds.8 mph54%30.15 "HgN/A
11:50 AM48 °FSunny.12 mph54%30.12 "Hg10 mi
11:20 AM46 °FPassing clouds.12 mph57%30.15 "HgN/A
10:50 AM48 °FSunny.12 mph54%30.15 "Hg10 mi
10:20 AM48 °FSunny.10 mph58%30.15 "Hg10 mi
9:50 AM46 °FSunny.9 mph66%30.15 "Hg10 mi
9:20 AM45 °FPassing clouds.8 mph71%30.15 "HgN/A
8:50 AM43 °FSunny.9 mph76%30.12 "Hg10 mi
8:20 AM41 °FSunny.10 mph81%30.12 "Hg10 mi
7:50 AM39 °FSunny.5 mph87%30.09 "Hg10 mi
7:20 AM36 °FSunny.3 mph93%30.09 "Hg10 mi
6:50 AM36 °FClear.2 mph93%30.09 "Hg10 mi
6:20 AM37 °FClear.2 mph93%30.09 "Hg10 mi
5:50 AM37 °FClear.5 mph93%30.09 "Hg10 mi
5:20 AM37 °FOvercast.6 mph100%30.07 "HgN/A
4:50 AM37 °FPassing clouds.5 mph100%30.07 "HgN/A
4:20 AM39 °FMostly cloudy.7 mph93%30.07 "HgN/A
3:50 AM39 °FMostly cloudy.13 mph93%30.07 "HgN/A
3:20 AM39 °FMostly cloudy.8 mph93%30.07 "HgN/A
2:50 AM39 °FMostly cloudy.9 mph93%30.07 "HgN/A
2:20 AM39 °FMostly cloudy.6 mph93%30.07 "HgN/A
1:50 AM39 °FLow clouds.13 mph100%30.07 "HgN/A
1:20 AM39 °FLow clouds.8 mph100%30.07 "HgN/A
12:50 AM39 °FMostly cloudy.15 mph100%30.07 "Hg5 mi
12:20 AM39 °FOvercast.14 mph100%30.09 "Hg5 mi
11:50 PM
Thu, Mar 5
41 °FMostly cloudy.16 mph93%30.09 "HgN/A
11:20 PM41 °FLow clouds.12 mph93%30.12 "HgN/A
10:50 PM41 °FLow clouds.13 mph93%30.12 "HgN/A
10:20 PM39 °FLow clouds.14 mph100%30.15 "HgN/A
9:50 PM39 °FLow clouds.13 mph100%30.12 "HgN/A
9:20 PM39 °FLow clouds.15 mph93%30.15 "Hg4 mi
8:50 PM39 °FLow clouds.15 mph93%30.15 "Hg6 mi
8:20 PM39 °FLow clouds.16 mph93%30.18 "Hg6 mi
7:50 PM39 °FLow clouds.18 mph93%30.18 "HgN/A
7:20 PM39 °FPassing clouds.18 mph87%30.18 "HgN/A
6:50 PM39 °FPassing clouds.17 mph87%30.18 "HgN/A
6:20 PM39 °FPassing clouds.15 mph87%30.21 "HgN/A
5:50 PM37 °FBroken clouds.16 mph87%30.21 "HgN/A
5:20 PM39 °FSunny.15 mph81%30.24 "Hg10 mi
Weather by CustomWeather, © 2015

See weather overviewHow to use our weather pages